Wind_Speed
17 17 17 18 18 18 19 20 21 23 24 26 27 29 30 32 33 34 35 36 37 38 39 40 41 42 43 43 44 46 47 49 51 52 53 55 57 58 58 60 60 61 62 62 62 61 60 60 60 61 62 62 62 62 61 61 59 59 61 62 62 60 57 54 51 48 44 43 38 33 30 30 35 50 64 52 36 33 29 28 28 30 36 36 36 34 28 27
18 18 18 18 19 19 19 20 20 21 22 23 25 26 27 28 29 31 32 33 35 36 37 38 39 41 42 43 43 45 46 47 49 50 52 53 55 57 58 60 61 62 62 63 64 64 63 62 62 62 63 63 63 63 63 63 62 62 64 65 65 60 56 54 53 49 46 46 40 30 26 25 26 35 58 61 45 36 31 32 33 32 35 33 31 33 31 29
20 19 19 19 20 20 20 21 21 22 23 24 24 25 26 27 28 29 30 31 33 34 35 36 38 39 40 42 43 44 45 47 48 49 51 52 53 55 57 58 60 62 63 64 65 65 65 65 65 65 64 64 64 64 65 65 65 65 66 68 65 60 58 56 56 52 47 47 43 33 26 25 25 25 38 54 53 45 37 33 36 38 38 33 30 32 31 29
21 20 20 20 20 21 21 21 22 23 23 24 24 25 25 26 27 28 29 30 31 32 34 35 36 38 39 41 42 42 44 45 46 47 49 50 52 54 56 57 59 61 63 64 66 67 67 67 67 67 67 66 65 66 67 67 67 67 69 69 64 62 61 58 57 54 50 47 46 38 30 26 26 25 26 35 46 50 46 35 31 38 40 33 32 30 30 31
23 22 21 20 20 20 21 22 22 23 23 24 24 25 25 26 26 28 29 30 31 32 33 35 35 36 38 39 40 40 41 42 42 43 44 46 49 52 54 56 58 60 62 63 65 67 68 69 69 69 69 69 68 68 68 66 67 69 70 68 64 64 63 60 58 56 54 49 48 43 35 31 26 27 27 27 33 38 41 35 25 28 33 29 28 28 30 36
26 25 23 22 21 21 21 21 22 23 23 24 25 25 26 26 27 28 28 29 30 30 31 32 32 32 33 35 36 37 38 40 40 40 41 43 45 47 49 51 55 58 60 62 64 65 67 69 70 71 71 71 70 70 68 67 68 70 70 68 66 66 65 62 58 58 58 51 50 46 39 37 29 29 30 28 30 27 28 28 21 23 29 30 29 24 24 30
29 27 25 24 23 22 22 22 22 22 23 24 25 25 26 27 27 27 27 28 27 28 28 29 29 29 30 32 34 35 36 38 40 41 42 43 44 45 46 48 51 54 57 59 62 64 66 68 69 70 72 73 72 71 70 69 69 70 70 68 67 67 66 65 61 60 60 55 54 50 43 40 34 32 33 29 27 26 26 24 23 26 30 33 32 25 22 26
33 30 28 26 25 24 23 23 23 24 24 24 25 25 26 26 27 27 26 26 26 27 27 28 28 28 29 31 33 35 37 38 39 41 41 42 43 45 47 49 51 52 53 55 57 61 63 66 67 69 71 73 73 72 71 71 71 72 70 68 67 68 68 67 64 62 60 57 56 53 48 46 40 36 36 31 26 27 28 26 27 31 31 32 31 30 29 29
38 35 32 29 27 26 25 24 24 25 25 25 26 26 26 27 27 27 27 26 26 27 27 27 28 28 29 31 33 35 37 38 37 38 38 39 41 43 45 48 52 53 53 53 54 57 60 62 64 66 69 71 73 73 73 73 73 73 71 69 68 69 70 69 67 63 60 58 58 55 52 51 48 44 41 36 31 26 23 23 28 33 33 32 31 34 33 31
40 39 36 33 31 28 27 26 25 25 25 25 26 27 27 28 28 28 28 28 28 28 28 28 28 28 30 31 33 35 36 37 38 37 36 36 37 39 41 44 48 51 54 54 55 55 56 58 59 63 67 70 72 74 74 75 74 73 72 71 71 71 71 70 68 65 63 62 60 57 57 56 52 51 48 40 33 29 27 29 32 32 32 33 33 37 35 34
41 40 39 37 34 32 30 29 27 26 26 26 26 27 28 29 29 29 29 29 29 29 28 27 27 28 30 31 33 34 35 38 39 38 36 35 35 36 38 40 43 46 50 53 54 56 56 56 56 59 64 68 70 71 73 74 75 74 74 75 74 73 72 71 69 68 67 65 63 58 58 60 56 54 53 44 33 30 31 34 36 31 31 33 35 39 40 39
42 41 40 39 37 35 33 32 31 29 29 28 27 27 28 28 29 29 29 29 29 29 27 27 27 28 29 31 33 34 35 37 38 37 36 35 35 35 37 40 41 43 46 49 51 55 57 57 57 58 61 64 66 68 70 71 74 75 75 77 76 75 75 73 71 70 69 67 65 61 59 61 60 58 57 53 44 35 32 33 37 35 34 36 36 40 45 46
42 42 41 40 37 36 35 33 32 32 31 31 30 29 29 29 29 28 28 28 29 27 26 26 27 28 28 30 33 34 35 36 36 37 36 36 36 36 37 39 40 42 44 47 49 52 56 58 58 59 59 61 63 65 67 68 71 74 76 78 78 78 77 76 73 72 71 68 65 63 64 66 66 63 60 59 57 47 39 38 40 41 38 38 37 37 42 45
42 43 42 40 38 36 35 34 33 33 33 33 32 32 31 30 30 29 28 28 29 27 27 28 28 29 29 31 33 34 35 36 36 36 35 36 36 35 36 36 36 38 41 44 47 50 54 58 59 60 59 59 60 62 63 65 68 72 74 77 78 79 79 77 75 75 72 68 66 61 63 70 68 64 61 60 60 52 44 44 48 48 43 40 39 38 39 41
42 43 42 40 38 36 35 34 34 33 34 34 34 34 33 33 32 31 29 29 30 29 29 30 30 31 31 32 33 35 35 36 36 34 34 36 37 36 36 35 36 37 38 39 43 47 52 57 60 60 59 58 57 57 59 62 65 69 72 76 79 80 79 77 75 75 72 69 68 60 61 70 68 63 62 61 59 51 43 43 51 54 49 46 46 43 43 44
43 43 42 41 38 36 35 34 34 34 34 34 35 35 35 34 34 33 31 31 31 30 31 31 31 32 33 33 34 35 36 36 35 33 35 37 38 38 38 37 37 39 38 37 39 44 50 56 60 60 59 58 56 55 55 58 62 65 69 73 77 79 78 78 75 74 73 70 69 65 66 71 66 62 62 61 57 50 45 43 47 51 49 50 52 51 49 50
43 43 43 41 39 37 35 35 34 34 34 34 35 36 36 35 36 35 33 32 32 32 33 33 33 33 34 35 36 37 37 36 35 33 35 38 40 40 40 39 38 39 38 37 37 39 47 54 59 59 58 58 57 56 56 58 61 63 66 70 74 76 78 78 76 74 73 73 71 67 70 73 66 62 63 62 57 50 49 49 50 49 47 48 53 56 55 55
43 43 43 42 40 38 37 36 34 34 34 34 35 36 36 36 36 35 33 33 34 34 35 35 35 35 35 36 38 38 39 39 37 35 36 39 41 42 41 40 38 39 39 37 36 34 41 49 55 58 58 59 57 57 59 59 60 62 64 67 70 72 75 77 76 74 72 71 68 64 69 74 70 67 64 62 60 57 53 52 54 52 49 50 54 59 61 61
43 43 43 42 41 39 38 37 35 35 35 35 35 36 36 36 36 35 33 33 33 34 35 35 36 35 36 38 40 40 39 38 38 37 37 38 41 42 42 41 39 39 39 36 34 31 36 43 50 55 57 59 58 58 58 56 56 58 60 62 66 68 70 73 73 72 70 65 62 63 70 74 72 69 64 58 59 61 59 57 57 55 52 54 57 61 64 63
42 43 43 42 41 40 39 38 36 36 35 35 35 36 36 35 35 34 33 32 33 34 33 34 36 36 36 38 40 41 40 38 38 38 39 39 39 40 42 41 40 40 39 34 30 28 33 40 46 51 53 55 56 56 56 54 53 54 55 57 61 63 65 67 67 69 68 62 59 64 72 74 72 69 65 59 57 58 60 61 61 59 55 55 59 64 66 64
42 42 43 42 41 41 41 39 38 37 37 36 35 35 35 35 34 32 29 27 31 35 33 33 36 36 37 39 40 40 39 37 36 38 40 41 41 41 41 41 41 42 38 33 29 27 33 40 43 45 47 48 50 53 54 53 53 51 52 54 57 60 62 61 61 64 64 59 56 60 68 74 72 68 65 64 62 58 58 59 60 61 60 60 63 67 68 65
41 42 42 42 42 42 42 41 39 39 38 37 37 36 35 35 34 33 30 23 25 32 33 32 35 36 37 38 38 38 36 35 36 37 40 42 43 43 42 41 41 40 36 33 31 28 34 40 39 40 42 43 45 49 52 53 53 52 52 52 55 58 58 56 55 57 59 57 55 54 60 71 73 67 61 61 61 59 58 57 56 59 63 65 67 69 68 64
41 42 42 42 42 42 43 42 41 40 40 39 38 36 35 34 33 33 32 26 24 28 30 31 33 33 35 36 35 34 33 34 35 37 40 42 43 44 43 40 39 38 35 34 32 30 34 37 34 35 38 40 41 44 49 52 53 54 52 52 54 54 54 55 52 52 55 56 55 53 56 62 64 60 56 55 56 57 60 60 58 59 60 61 63 65 65 63
41 42 42 43 43 43 44 44 43 42 41 40 38 37 35 33 32 31 30 27 25 26 27 29 31 31 33 33 32 31 32 33 35 36 40 41 41 42 41 37 35 36 34 33 31 30 32 33 31 32 34 36 37 40 45 50 53 54 53 53 52 52 52 55 51 44 44 51 54 53 54 58 58 53 53 56 57 59 62 62 62 62 61 60 60 62 62 61
42 42 42 43 43 44 44 44 44 43 42 41 39 38 36 34 32 30 29 26 25 26 25 28 29 29 31 32 30 31 33 35 35 36 38 40 40 40 38 35 33 33 33 31 31 30 29 29 29 31 32 31 32 36 41 47 51 53 54 52 51 51 51 53 52 40 33 42 51 49 51 59 60 53 51 57 59 60 62 63 63 62 63 62 61 60 60 59
42 43 43 44 45 45 45 45 45 44 43 42 41 39 37 34 32 31 30 26 25 26 25 26 28 29 31 32 31 33 36 37 38 38 39 38 39 38 37 36 33 31 31 30 30 29 27 28 28 30 31 26 26 30 36 43 48 50 52 50 49 51 51 52 52 44 34 36 44 48 49 55 58 51 46 51 56 58 60 63 64 62 62 62 59 58 59 58
43 44 44 45 46 46 46 47 47 46 45 44 42 40 37 34 33 32 30 27 26 26 26 28 29 29 32 35 36 37 40 42 42 41 40 39 37 36 37 36 33 30 29 29 29 27 26 27 28 29 29 25 23 26 30 36 44 48 48 47 47 48 51 52 50 47 40 34 37 43 47 49 51 52 49 48 51 57 59 60 62 62 62 60 58 59 59 57
43 44 44 45 47 47 47 48 49 48 47 45 43 41 37 34 33 32 30 28 26 26 27 28 30 32 34 37 40 42 44 45 45 41 38 38 36 35 37 36 30 27 27 28 28 25 24 27 28 28 30 29 26 24 25 29 38 46 46 44 42 42 46 50 51 49 46 41 39 39 42 48 52 53 54 52 51 58 61 60 61 63 63 60 57 59 58 56
43 44 44 45 47 48 48 48 50 50 48 46 43 40 37 34 33 32 29 27 25 26 27 28 31 34 36 38 41 42 43 42 43 40 36 35 33 33 35 34 28 26 27 29 27 24 24 27 27 28 31 33 29 24 22 24 31 40 44 41 37 34 35 45 51 50 49 48 44 38 39 46 52 52 52 52 53 61 64 62 62 62 62 60 58 57 56 55
44 44 45 45 47 48 48 48 49 49 47 46 43 40 37 34 33 31 29 26 25 27 29 31 33 35 37 40 41 40 40 37 36 35 34 32 30 30 32 30 25 24 26 27 25 24 24 26 29 30 32 35 33 29 26 24 25 33 39 38 36 32 27 36 47 50 52 52 44 40 39 40 46 50 49 46 47 56 61 61 61 60 60 60 58 56 54 53
44 44 45 46 47 48 49 49 50 50 49 47 44 40 37 34 33 31 29 28 27 28 30 32 33 35 39 42 42 40 37 33 31 31 32 29 24 26 29 26 22 23 24 24 23 23 23 26 30 30 31 34 36 33 31 28 26 30 36 34 34 33 27 29 41 50 58 56 47 44 41 38 41 46 46 45 43 46 52 57 59 58 56 57 57 55 53 53
43 44 45 46 47 49 50 51 52 53 52 50 46 41 37 34 32 31 29 29 29 30 32 32 33 37 40 42 43 41 36 31 28 28 26 22 18 19 22 20 20 22 23 22 21 20 22 25 28 29 28 33 37 35 33 31 28 32 38 36 33 34 31 29 38 51 60 58 51 49 44 41 45 46 44 47 48 47 50 55 56 52 49 49 51 53 54 53
43 44 45 46 48 49 50 51 53 54 53 51 47 42 37 34 32 31 31 30 31 32 33 34 36 39 40 42 44 42 36 28 24 23 19 17 16 15 16 17 20 23 22 21 21 20 21 23 28 29 28 32 36 36 34 31 29 34 40 40 36 35 32 31 38 50 57 56 52 51 47 45 46 47 45 45 48 50 53 58 55 50 47 43 45 51 54 51
43 44 45 46 48 49 49 51 53 55 54 52 48 43 38 35 32 31 30 30 31 33 34 37 38 38 39 43 45 39 31 23 19 19 16 15 15 14 16 17 17 19 19 20 22 21 20 21 26 29 29 29 31 34 34 31 31 37 41 40 39 38 30 28 36 47 52 53 53 49 47 49 44 39 40 41 41 42 45 50 49 46 46 42 42 48 51 49
42 44 44 45 47 48 48 49 53 56 55 53 49 43 38 36 33 31 30 31 31 32 35 38 39 39 41 45 43 34 26 20 17 16 14 13 14 13 14 13 13 14 15 18 19 18 18 18 21 28 30 29 30 30 30 32 34 38 42 40 41 41 30 26 34 42 46 48 54 53 49 50 43 32 33 38 38 36 33 32 32 37 43 42 41 43 46 47
41 43 43 44 45 47 48 50 53 56 56 53 49 44 38 35 34 32 32 32 32 34 36 38 41 44 47 46 39 29 22 18 15 15 15 13 13 13 11 9 11 12 13 15 15 16 17 16 18 25 30 30 31 30 30 34 35 39 44 42 42 41 30 24 30 38 42 45 51 54 49 46 42 36 35 33 31 34 33 27 25 32 40 43 42 40 41 45
41 42 43 44 44 46 49 51 52 56 57 53 49 44 38 35 34 34 33 32 32 35 38 39 42 46 48 46 35 25 19 15 13 15 14 13 14 13 11 9 9 10 11 13 13 15 18 17 17 21 26 28 29 31 33 35 36 39 44 41 39 41 33 24 28 36 42 44 49 52 47 42 39 39 38 30 27 35 38 31 28 32 37 40 41 40 39 41
40 43 44 45 45 47 50 51 52 55 57 54 49 44 38 35 34 34 34 33 33 35 37 38 41 44 46 43 33 23 19 15 14 15 13 13 14 13 12 10 7 6 7 8 9 12 15 16 17 20 25 28 30 33 35 38 39 38 41 41 39 40 35 27 29 35 41 45 49 51 47 39 35 37 37 32 30 38 41 35 32 34 37 38 38 39 39 40
40 43 44 45 46 47 49 50 51 54 56 54 49 44 39 35 34 34 34 31 32 35 36 36 40 43 42 39 31 23 20 17 14 14 14 13 12 12 12 10 8 7 6 5 4 7 8 9 12 18 23 28 32 35 37 41 42 38 39 44 42 39 36 31 30 34 42 46 45 47 45 36 32 36 35 30 30 34 39 37 35 36 38 39 38 38 39 40
39 42 44 45 45 46 48 50 52 53 55 54 49 44 40 35 33 33 31 29 31 34 35 35 38 42 40 36 31 24 20 18 14 13 13 11 10 12 12 10 10 9 7 5 2 3 3 3 6 13 19 24 29 35 39 40 42 39 39 44 44 39 36 32 30 35 44 44 36 39 43 35 33 38 35 28 23 26 36 39 37 38 38 38 39 38 37 40
39 41 43 45 45 45 47 50 52 53 54 54 49 44 41 35 31 30 29 29 31 33 33 34 37 39 38 35 30 24 19 16 13 13 13 12 13 14 12 10 9 8 6 2 1 1 1 3 3 9 15 21 24 31 37 39 41 40 38 42 44 39 36 32 29 34 44 44 33 31 35 34 36 39 36 28 19 23 36 40 37 37 37 38 39 37 34 37
40 41 43 44 45 45 47 50 52 53 55 53 49 44 40 35 30 29 29 29 30 31 32 33 36 37 36 34 29 23 18 14 13 13 12 13 16 15 12 11 9 8 5 2 2 5 7 6 2 7 11 15 19 27 36 39 40 40 37 40 44 41 36 30 25 28 37 44 39 31 29 31 34 35 34 27 19 23 34 37 35 34 35 37 38 34 31 33
40 41 43 44 44 44 46 49 51 53 54 53 47 40 36 33 30 28 29 30 29 31 31 32 34 35 33 31 28 22 17 15 15 14 13 15 17 16 14 11 8 7 5 3 6 9 6 4 3 7 11 13 17 25 32 36 40 41 37 39 45 41 32 28 25 24 28 37 44 43 39 36 33 31 31 27 22 25 33 37 37 34 34 36 38 35 32 32
40 41 42 43 43 44 45 48 50 51 53 52 45 36 31 31 31 29 29 29 29 29 29 30 33 32 30 27 23 19 16 15 16 16 15 17 18 18 14 10 7 6 5 6 9 10 7 7 7 8 13 15 17 24 30 34 39 39 34 39 45 38 30 28 25 23 26 29 34 42 49 50 43 34 31 29 27 29 34 40 41 37 36 37 39 37 34 33
39 40 42 42 42 43 44 47 49 50 52 50 43 36 32 32 31 29 28 28 27 27 27 29 32 30 28 24 18 14 13 13 17 18 17 17 16 14 11 8 7 6 6 7 7 9 9 8 9 11 15 16 17 24 27 29 31 29 29 41 46 37 31 28 23 24 28 27 27 31 39 48 50 41 33 33 33 32 36 43 44 41 39 39 38 36 35 37
39 40 42 42 41 42 43 46 49 50 52 50 43 38 36 33 29 27 27 26 25 25 26 28 30 28 25 20 13 10 8 10 15 16 16 15 14 13 11 9 9 9 9 7 7 10 10 11 12 14 17 17 16 18 19 20 21 20 29 43 45 37 33 31 28 27 28 27 27 26 29 39 44 41 36 36 39 38 38 43 46 45 43 41 38 36 36 38
40 41 42 41 40 41 42 44 48 49 50 49 46 42 37 33 29 25 24 24 25 24 24 26 27 25 23 18 12 9 8 11 14 15 15 15 14 14 14 14 15 12 10 11 11 12 11 13 14 16 17 16 14 12 12 15 17 19 31 42 44 40 36 37 38 33 27 27 27 27 34 39 37 36 36 37 39 41 40 41 44 46 44 40 38 36 35 35
40 41 42 41 39 39 40 42 45 47 47 48 48 44 37 31 29 26 22 21 23 24 23 24 24 22 19 17 13 11 11 13 14 15 15 15 14 14 14 17 17 12 11 13 11 10 10 12 15 15 14 13 11 9 9 13 14 19 32 41 43 40 38 40 41 32 23 24 26 29 33 33 30 31 35 35 37 40 40 41 43 44 42 40 39 37 36 35
39 41 43 41 39 39 40 41 43 44 46 48 47 42 36 30 27 26 23 19 19 20 20 21 22 19 15 15 13 12 12 12 13 14 14 14 15 14 15 19 18 11 9 12 12 11 12 14 13 12 9 9 9 7 9 13 16 23 35 40 40 38 37 36 33 27 21 21 23 24 24 27 28 31 34 36 37 39 39 40 41 41 39 38 38 38 37 36
37 39 41 40 38 37 38 40 42 43 45 47 45 40 35 29 24 25 24 20 17 17 18 19 20 17 11 10 10 10 10 9 10 13 13 13 14 13 14 18 18 14 11 13 14 13 14 14 9 7 9 11 12 10 8 9 14 26 37 38 36 36 34 29 25 25 24 21 19 18 19 25 29 29 32 36 38 40 39 38 38 37 37 36 36 36 35 34
36 37 39 39 37 36 36 38 41 43 44 45 45 41 34 29 25 23 24 22 19 17 17 19 19 15 9 5 4 5 7 6 9 12 12 11 12 11 11 14 15 16 13 11 12 13 15 11 6 8 12 12 13 11 6 5 11 25 37 39 37 34 29 25 24 24 21 17 16 16 19 27 29 30 33 33 35 38 38 36 35 35 35 35 34 33 32 31
36 37 38 39 38 35 35 37 40 42 43 43 44 42 37 32 27 23 22 21 20 19 17 17 17 14 9 5 3 3 4 4 6 9 11 12 11 9 9 9 10 13 12 8 7 10 9 10 8 10 13 11 12 10 8 7 11 22 33 39 38 32 23 22 24 23 18 15 15 15 19 27 30 32 34 32 32 33 33 34 36 34 33 34 33 33 32 32
Wind_Direction
311 306 303 298 294 289 284 280 276 274 271 269 267 265 264 263 262 261 261 260 260 259 259 258 258 258 257 256 256 255 254 254 254 254 253 252 252 251 250 248 247 247 247 247 247 245 244 244 243 243 243 242 241 241 242 243 243 243 244 244 242 239 240 241 241 241 242 245 246 246 240 236 235 226 222 218 208 206 201 203 225 244 240 234 235 240 243 238
315 310 305 300 296 292 288 284 280 276 273 271 269 267 266 265 264 263 262 261 261 260 260 260 260 260 259 258 257 256 256 256 255 255 254 253 252 252 251 250 249 248 246 246 246 245 244 244 243 243 242 242 241 240 240 241 241 242 244 244 242 239 239 241 242 240 240 246 245 243 240 235 241 231 223 223 218 211 204 201 214 233 241 239 237 236 239 242
321 315 309 304 298 293 288 284 280 277 274 272 270 268 266 265 264 263 262 261 261 261 260 260 260 259 259 259 258 257 256 256 256 256 256 255 254 252 251 251 250 249 248 246 245 245 244 243 243 242 242 242 241 240 239 239 240 241 243 244 242 241 240 240 242 241 238 243 245 237 232 234 240 236 226 227 225 222 221 209 208 223 232 236 240 239 238 241
332 324 316 309 303 298 292 287 282 279 275 273 271 269 267 266 265 263 262 262 262 262 262 261 261 261 261 260 259 259 258 257 257 257 257 257 256 254 252 251 250 249 248 247 246 245 244 242 242 242 241 241 240 240 239 239 239 240 241 243 243 243 242 240 240 242 239 240 245 237 228 235 242 239 229 227 226 223 227 220 209 227 238 240 247 250 249 248
343 335 326 317 309 302 296 291 287 283 279 277 274 272 269 267 266 264 264 264 264 263 263 263 263 263 263 263 262 262 262 260 259 259 259 258 257 256 254 253 251 249 248 247 247 245 244 243 242 241 241 241 240 239 239 238 239 239 240 242 244 244 244 242 240 242 240 238 244 240 229 228 240 245 231 220 220 215 222 225 215 232 247 250 253 255 255 256
352 345 336 328 319 309 302 295 290 286 282 279 276 274 272 270 269 268 268 267 266 266 266 266 266 267 267 268 267 266 267 266 263 261 261 259 259 258 257 256 254 252 250 248 247 246 245 244 242 241 241 240 239 239 239 238 239 239 239 240 241 243 244 243 241 241 241 238 240 240 232 222 224 239 235 221 220 211 213 227 225 228 243 252 254 251 251 259
359 352 344 336 328 319 311 303 297 291 286 283 280 278 276 275 274 273 272 271 271 271 271 272 273 274 276 275 275 274 273 273 271 268 268 266 263 262 260 259 257 254 252 250 248 247 245 244 242 242 241 240 239 239 238 237 238 238 238 238 239 241 242 243 241 241 241 240 239 237 231 219 213 228 236 227 221 211 205 215 224 223 230 241 248 248 243 250
3 358 351 343 335 328 320 313 306 300 296 292 289 286 284 281 280 278 277 276 276 276 277 279 281 283 285 286 286 285 282 281 280 278 277 275 270 266 263 261 258 256 254 253 251 249 247 245 243 242 241 240 239 238 237 236 237 237 236 236 238 239 241 241 240 240 241 241 241 238 232 223 219 225 230 229 217 205 203 206 218 226 228 234 242 245 239 240
3 360 354 348 342 335 327 320 314 308 304 300 297 294 291 288 287 285 283 282 282 282 284 286 289 290 293 295 295 294 291 289 288 286 284 282 277 271 267 263 260 257 255 254 253 251 249 247 245 242 241 239 238 237 236 236 235 236 236 235 236 237 239 240 240 239 238 239 240 240 236 230 228 228 224 222 216 213 221 223 226 233 233 234 239 242 240 237
3 360 356 351 346 340 334 328 321 315 310 305 302 297 295 292 289 288 286 286 286 287 290 292 294 296 299 302 301 301 301 298 295 294 292 289 285 278 273 268 263 259 256 253 252 252 250 248 247 244 241 238 237 237 236 235 234 234 235 234 234 235 237 239 239 238 236 236 236 238 239 234 229 228 225 216 207 215 236 251 248 243 237 231 237 244 241 236
3 0 357 352 347 343 339 334 329 323 317 312 306 301 296 293 290 289 288 288 288 289 291 293 296 300 304 308 308 309 309 306 303 301 299 296 292 286 281 276 270 265 260 255 252 250 250 249 247 246 243 239 238 237 236 235 234 233 233 233 233 233 235 236 237 237 236 235 234 235 239 237 230 225 226 220 208 207 220 243 250 247 248 239 237 243 243 240
3 1 357 353 349 345 342 338 334 329 324 318 312 305 298 294 291 289 289 289 289 289 290 293 298 303 309 312 312 313 312 309 306 304 302 300 297 292 287 284 279 273 267 261 255 251 249 247 246 245 244 241 238 237 236 235 234 233 232 232 232 232 232 233 235 235 235 235 234 233 233 236 234 226 223 223 223 218 211 224 233 237 250 250 242 239 242 242
3 1 358 354 350 346 343 340 336 332 327 322 316 309 302 297 293 291 292 292 291 290 291 296 301 306 312 312 312 313 311 307 305 304 303 301 299 295 292 290 286 280 273 266 259 253 248 246 245 244 243 241 239 237 235 234 233 232 231 232 232 231 231 231 232 233 234 234 234 234 232 232 234 230 223 222 226 226 214 209 220 233 243 249 247 239 239 241
3 2 360 356 352 348 344 341 337 333 329 324 319 313 307 301 297 296 296 296 294 291 293 298 303 308 312 310 310 311 307 304 303 302 300 298 298 298 297 295 292 287 282 273 263 255 248 245 244 242 241 241 240 238 236 234 232 231 230 231 231 231 231 231 231 232 231 231 231 232 234 233 231 229 225 222 225 223 213 208 217 230 236 240 245 240 239 242
4 3 1 358 354 350 346 342 338 334 330 325 320 315 310 305 301 300 299 299 295 292 294 299 303 307 308 307 307 306 304 302 300 299 295 294 296 298 298 297 295 293 292 285 270 256 246 241 241 241 239 239 239 239 237 235 232 231 230 229 229 230 231 231 231 232 231 230 230 225 229 234 229 227 226 225 228 223 213 211 217 225 229 232 237 238 237 239
4 4 3 360 356 352 349 344 340 335 330 325 320 316 312 307 303 301 301 300 297 294 293 297 302 305 305 306 303 301 301 300 297 294 290 289 291 293 295 295 293 293 296 298 283 259 243 237 236 237 236 235 235 235 236 235 232 231 231 230 229 230 230 230 230 232 231 231 230 224 227 235 230 225 226 226 228 224 214 209 214 224 228 231 236 239 238 240
4 4 4 2 358 355 351 347 341 336 331 326 320 316 313 308 304 301 301 300 298 295 293 294 299 301 304 305 302 301 301 299 295 290 285 284 285 287 291 294 291 290 294 302 297 269 244 235 233 233 233 232 231 231 231 231 230 229 230 230 230 230 230 230 229 230 231 231 231 227 229 235 233 228 227 225 221 217 215 211 213 224 230 234 239 242 243 245
4 3 4 2 360 357 353 349 343 337 332 327 321 317 313 309 304 302 300 299 299 297 294 295 297 300 302 301 300 300 300 298 294 289 284 282 282 284 288 292 291 290 290 298 304 280 249 237 233 231 230 229 228 228 229 229 229 228 229 229 228 229 230 231 230 228 229 231 231 229 231 233 234 233 232 229 221 213 214 216 214 219 225 229 236 241 244 245
4 3 3 3 0 358 355 352 346 340 334 328 323 318 314 310 307 304 301 299 298 296 295 294 295 296 298 297 298 300 298 296 293 290 286 282 283 284 286 290 291 290 288 292 302 283 254 242 236 233 230 227 226 227 229 230 229 228 228 229 228 228 229 230 230 228 228 228 228 228 231 233 233 233 231 230 228 220 215 216 218 219 223 227 232 238 243 244
3 3 3 3 1 359 357 354 349 343 338 332 326 321 317 312 308 306 304 301 297 292 291 291 291 291 291 293 296 299 299 297 294 292 289 286 285 285 285 289 290 290 288 288 293 279 255 246 240 235 232 229 227 227 228 228 228 229 228 228 228 227 227 228 229 228 226 225 226 230 233 233 233 233 229 227 229 228 223 221 223 222 223 229 234 238 243 244
3 2 2 3 1 359 358 356 351 346 342 337 330 324 320 314 311 308 305 301 296 293 293 293 292 292 292 293 295 298 299 298 297 294 292 291 289 288 287 289 289 290 288 283 280 270 254 248 241 236 234 231 229 226 227 226 225 227 227 226 226 225 225 226 227 227 226 224 224 230 235 235 235 234 231 227 227 230 231 230 228 225 223 228 234 239 243 246
3 2 2 3 2 359 358 357 354 348 344 340 335 329 323 318 315 312 309 305 295 293 297 296 295 295 295 296 297 299 299 299 298 296 294 292 291 291 289 289 289 289 286 275 271 264 253 249 242 235 234 233 230 226 225 224 224 224 225 225 225 224 223 223 224 225 224 222 221 225 232 235 236 236 234 232 229 228 231 233 231 229 228 229 233 238 243 246
2 2 1 2 2 359 358 357 355 350 346 342 338 332 326 320 316 314 313 311 298 293 296 297 296 298 298 298 300 301 300 300 299 297 295 293 292 291 290 290 289 287 281 270 267 263 255 253 245 235 233 234 232 227 224 223 222 223 223 224 224 222 222 221 219 220 221 220 220 221 226 232 235 235 231 230 229 227 229 231 231 231 232 233 236 239 244 247
1 1 0 0 1 360 358 357 355 352 348 344 339 334 329 323 318 316 315 312 303 297 299 300 300 301 299 299 301 300 299 300 301 299 296 295 294 292 292 292 288 285 280 270 266 264 257 254 246 235 231 233 233 229 224 222 221 221 220 222 222 219 220 221 217 216 220 220 219 220 224 227 230 232 230 228 229 230 230 231 232 233 235 237 239 241 245 247
359 360 359 359 360 360 358 357 356 353 349 346 342 337 331 326 322 320 319 315 306 301 303 303 302 302 300 300 302 301 300 302 304 303 300 299 298 296 295 293 290 287 279 267 262 261 257 252 243 233 229 228 229 228 224 222 221 221 220 218 220 218 217 219 215 207 211 217 215 217 224 228 229 231 233 232 231 232 232 232 232 234 237 239 241 244 245 245
357 358 359 358 358 358 358 358 357 354 350 348 345 340 334 330 326 324 322 318 310 307 307 305 305 306 305 306 307 305 305 307 308 308 305 303 301 298 297 294 293 287 274 261 256 257 254 249 239 230 226 223 225 225 222 222 221 220 220 217 217 218 216 216 214 203 200 210 211 213 223 229 227 225 230 233 232 231 232 233 232 233 237 239 240 243 243 243
355 356 357 358 358 358 357 357 357 355 351 348 346 342 337 332 328 327 325 321 316 315 314 313 312 312 312 314 314 312 312 312 310 308 306 306 303 298 295 293 292 286 271 256 252 253 251 246 238 226 218 215 221 224 220 221 223 220 217 216 216 217 217 216 212 204 199 199 202 209 221 229 225 218 220 228 232 231 230 233 234 233 234 236 238 241 242 243
354 355 356 357 357 357 357 356 356 355 352 349 346 343 338 332 330 330 329 326 323 322 320 319 317 317 318 320 319 317 316 314 309 304 304 305 301 294 291 291 289 279 264 253 250 252 247 240 236 227 216 210 212 219 220 221 225 220 215 214 213 215 218 217 212 204 198 197 197 200 212 224 226 220 220 224 229 233 232 231 234 235 234 234 235 238 241 243
353 353 355 356 357 357 357 357 357 355 353 350 347 343 338 334 332 332 331 329 327 323 321 321 321 322 322 322 321 318 315 312 306 300 300 301 296 289 289 289 285 271 256 252 253 253 245 234 229 221 214 209 205 207 214 222 227 221 215 211 208 209 216 219 215 204 200 203 199 193 197 214 226 224 221 225 230 235 234 231 231 234 236 235 234 236 238 242
351 352 353 355 356 357 357 357 357 356 353 351 348 345 341 337 335 334 331 329 328 325 323 326 326 325 324 322 322 319 312 310 306 299 298 300 294 286 285 284 279 270 260 256 261 262 250 234 227 219 211 206 200 199 203 211 220 217 212 207 201 200 206 218 215 204 205 208 198 190 191 204 224 228 221 221 230 235 235 234 232 232 235 236 236 236 237 239
350 351 352 354 355 356 356 356 357 357 354 352 350 348 344 339 336 334 332 331 332 330 328 329 328 327 326 324 325 322 316 313 311 304 301 301 295 283 280 279 276 275 266 259 266 271 256 236 228 226 219 207 202 201 199 200 206 205 201 196 195 195 196 213 211 203 210 211 196 190 191 196 215 224 220 216 222 231 234 235 235 233 232 235 237 237 237 237
350 350 352 353 354 355 356 356 357 357 355 354 352 351 345 339 337 337 335 334 334 334 331 332 332 331 330 329 329 326 322 320 316 311 307 305 302 283 277 283 282 278 270 260 263 268 257 239 228 227 222 209 206 206 201 197 196 196 194 188 188 193 196 208 206 202 211 211 198 191 192 199 207 209 214 217 217 223 231 235 235 234 233 233 234 233 234 236
350 350 351 352 353 355 356 356 357 357 356 354 353 351 346 340 340 340 338 336 336 336 334 336 339 337 334 334 332 326 326 329 321 315 315 312 308 289 283 292 285 276 273 264 262 263 255 237 225 225 219 207 207 209 205 199 192 190 191 188 187 191 199 208 203 202 210 210 199 191 194 204 205 202 207 215 218 221 229 235 236 235 236 236 235 232 231 233
349 350 351 352 353 356 356 355 356 357 356 355 353 351 347 342 343 342 339 338 339 339 338 340 342 340 337 337 335 331 333 335 321 316 324 319 312 299 289 291 282 275 271 262 260 261 254 237 223 222 221 214 212 213 210 206 198 189 186 188 188 187 194 207 203 204 210 207 197 193 199 203 200 201 207 212 217 220 227 234 235 234 236 237 237 234 230 230
349 350 352 352 354 355 354 355 356 356 356 355 353 352 348 345 346 343 341 343 343 343 343 343 343 341 341 342 342 340 338 329 320 328 334 325 319 310 297 289 282 277 266 258 258 255 249 238 220 216 221 221 216 214 211 210 206 191 185 188 188 184 189 202 201 205 211 206 197 196 202 199 192 195 208 212 214 213 215 222 226 230 232 234 236 234 228 225
349 349 351 353 354 353 353 355 356 356 356 356 355 353 350 347 346 345 348 348 346 346 347 346 346 346 346 348 348 345 340 330 327 338 337 331 330 322 312 296 281 275 262 255 255 250 243 234 220 217 221 221 217 212 207 208 207 195 189 189 186 183 188 201 200 203 210 207 199 199 200 196 192 193 198 205 210 209 207 205 212 226 230 232 236 235 227 223
349 348 350 353 353 352 353 355 357 357 356 357 356 354 352 348 346 348 352 352 350 352 351 349 350 349 347 351 352 349 347 343 340 343 339 336 336 329 327 319 295 284 273 264 257 249 242 234 229 227 224 221 218 212 207 206 205 199 193 187 183 185 191 202 201 201 207 205 198 199 199 196 198 197 191 190 191 196 200 201 209 223 229 232 235 235 229 224
349 349 350 352 352 353 354 355 358 358 357 357 356 354 354 351 347 351 355 354 353 355 355 352 351 351 349 351 355 353 352 352 348 348 346 343 344 344 348 350 337 315 293 277 261 246 245 243 237 234 226 219 216 214 210 207 203 199 192 184 182 189 194 200 200 199 203 203 197 199 200 196 195 192 188 190 190 189 191 197 206 217 227 232 234 237 232 224
350 349 349 351 351 353 355 355 358 360 357 356 355 354 356 353 351 354 355 354 356 357 358 355 353 354 353 353 356 358 356 357 356 355 357 356 1 12 12 12 14 354 326 312 279 235 239 243 233 234 227 216 215 213 209 206 201 195 191 187 186 191 194 196 197 194 197 201 199 197 198 194 186 181 181 191 200 193 188 193 203 212 224 231 235 240 235 223
350 349 349 350 351 353 354 355 359 0 358 356 356 355 356 356 356 354 352 355 359 359 359 358 356 357 357 356 357 0 359 1 6 7 9 11 17 29 27 17 10 354 332 326 314 198 190 194 212 230 223 212 213 211 206 204 199 194 191 190 190 189 189 192 192 190 194 199 194 190 194 189 177 176 177 182 197 194 188 194 204 212 222 230 236 241 236 225
349 349 348 349 351 352 353 355 358 359 357 356 356 355 356 358 358 353 354 360 3 2 2 0 358 358 0 359 359 3 6 10 19 21 24 33 32 31 28 18 12 1 348 350 80 149 1 332 245 220 214 211 209 206 204 200 196 196 191 187 189 187 186 189 184 183 194 202 195 187 190 182 173 179 180 179 191 189 185 194 205 215 222 227 234 241 237 227
348 348 348 349 350 350 352 355 357 357 358 358 357 356 356 358 357 354 357 3 4 5 5 3 1 360 1 3 5 13 21 27 36 32 30 39 38 30 24 24 25 13 1 346 344 343 344 343 274 196 193 202 195 189 195 197 195 196 190 186 191 190 187 186 172 171 191 203 207 203 192 177 175 186 186 180 189 189 187 197 207 218 227 228 233 238 233 225
346 347 348 349 348 349 352 355 356 357 359 359 358 357 355 354 357 358 359 1 4 7 9 8 5 3 4 9 14 26 39 44 41 32 27 34 32 21 14 13 9 9 6 336 348 350 356 40 125 163 152 160 169 173 187 195 197 197 191 189 193 188 180 173 162 166 183 195 206 213 208 192 183 186 184 179 190 195 196 205 209 214 224 230 233 233 226 222
345 346 348 348 347 348 352 354 356 356 358 359 359 358 355 354 359 2 358 359 5 9 9 10 9 8 11 16 26 40 51 50 42 31 27 30 26 19 16 10 358 7 0 335 356 12 29 84 119 142 135 138 155 169 182 191 194 198 194 188 188 181 171 168 166 177 188 190 200 209 211 205 195 188 185 186 192 194 195 206 213 214 217 224 230 228 222 220
343 346 347 348 347 348 350 353 354 355 357 0 1 359 358 357 0 2 358 359 6 11 12 10 9 11 16 23 38 53 54 45 35 27 24 24 22 20 21 14 1 6 0 343 9 38 55 97 123 137 136 134 151 166 177 184 189 196 189 183 184 177 170 175 177 184 193 199 206 210 208 203 198 196 198 202 205 200 194 202 213 218 218 222 227 225 221 221
342 345 346 347 347 347 349 352 353 354 357 0 1 0 359 360 1 1 357 357 3 12 15 12 11 15 21 30 49 63 56 37 23 18 19 18 14 11 11 12 8 9 20 37 66 76 95 123 133 145 149 145 147 156 169 180 186 188 180 180 185 180 174 181 183 183 192 204 210 204 189 186 189 191 195 203 210 210 203 203 211 218 221 224 225 223 223 225
340 343 345 347 347 347 349 351 352 354 356 358 0 2 2 0 360 359 358 355 359 9 15 13 15 22 29 42 61 64 49 35 23 17 18 17 13 11 12 15 16 24 51 72 85 92 109 133 142 151 158 157 149 140 154 179 189 185 179 180 185 184 181 186 187 185 194 204 200 184 175 179 184 186 190 199 203 205 207 208 212 217 221 224 225 221 220 222
339 340 343 346 347 347 348 350 352 353 355 356 359 3 4 1 357 358 3 359 355 3 12 14 19 29 41 55 65 62 46 35 30 28 26 23 19 19 21 25 29 46 75 80 87 97 105 126 140 147 155 160 156 140 154 184 195 189 182 181 184 185 184 187 190 189 198 205 192 178 179 187 188 185 193 201 199 198 205 210 214 218 220 223 223 218 216 219
338 339 341 344 347 347 347 349 352 352 353 355 0 4 3 1 355 352 0 5 357 0 8 12 18 30 50 64 64 55 42 28 22 24 26 25 20 13 14 27 38 47 62 76 91 101 106 118 131 143 159 176 181 171 168 180 184 178 176 178 182 183 182 184 188 194 204 207 197 192 194 195 188 183 192 201 199 197 202 209 213 216 216 217 219 219 219 220
337 338 339 342 346 346 345 347 350 351 351 355 1 4 2 360 355 348 351 360 3 4 6 8 14 24 46 70 67 49 31 10 359 7 14 17 18 12 4 14 27 29 43 86 104 107 113 116 120 149 178 194 197 188 172 179 182 174 173 180 187 187 186 188 189 196 203 203 201 206 199 188 182 179 187 197 198 196 198 202 206 210 211 213 216 217 216 215
336 337 338 339 343 345 345 346 347 349 351 354 359 4 2 0 359 352 347 352 359 3 4 6 12 20 31 50 66 50 32 3 346 352 356 356 5 12 3 2 13 21 40 88 112 119 120 103 92 163 187 200 197 190 184 196 191 179 178 185 193 192 192 196 196 200 204 200 205 209 187 178 179 178 182 188 189 190 192 196 201 205 205 206 209 211 212 215
334 335 336 337 340 343 344 344 344 347 350 353 357 1 3 3 2 356 347 347 352 356 359 3 7 13 19 14 359 11 20 8 346 342 342 341 348 2 7 0 5 20 33 53 93 120 105 41 53 156 188 199 185 187 203 196 176 175 180 188 195 196 197 199 199 203 207 208 213 207 182 175 179 185 190 190 185 184 186 192 199 203 201 202 205 208 213 219
Height
5754 5753 5752 5751 5751 5750 5750 5750 5750 5750 5750 5749 5749 5749 5749 5749 5749 5749 5749 5749 5749 5749 5749 5749 5750 5750 5751 5752 5753 5754 5755 5755 5755 5757 5758 5759 5759 5760 5762 5763 5765 5767 5768 5769 5771 5774 5776 5778 5779 5781 5782 5785 5787 5791 5793 5794 5797 5797 5796 5797 5797 5800 5804 5809 5815 5819 5823 5826 5830 5835 5838 5840 5841 5842 5844 5844 5844 5847 5852 5854 5855 5852 5850 5850 5854 5857 5860 5862
5754 5752 5751 5750 5749 5748 5747 5747 5747 5747 5746 5746 5746 5746 5746 5746 5746 5746 5745 5745 5745 5745 5745 5745 5745 5746 5746 5747 5748 5748 5749 5749 5750 5751 5751 5752 5753 5754 5755 5756 5758 5759 5761 5763 5764 5767 5770 5771 5773 5774 5776 5778 5781 5785 5787 5788 5791 5790 5791 5790 5790 5797 5803 5807 5812 5816 5820 5823 5828 5832 5834 5836 5837 5838 5839 5841 5842 5844 5847 5849 5850 5847 5847 5848 5852 5854 5857 5859
5754 5752 5751 5749 5748 5747 5746 5745 5744 5744 5743 5743 5742 5742 5742 5742 5742 5742 5741 5741 5741 5741 5740 5741 5741 5741 5741 5741 5742 5743 5744 5744 5745 5746 5745 5746 5747 5747 5748 5749 5750 5752 5753 5755 5757 5759 5762 5764 5766 5767 5769 5772 5775 5778 5779 5782 5784 5785 5785 5783 5785 5795 5801 5804 5807 5812 5818 5820 5824 5829 5831 5832 5834 5835 5835 5836 5839 5842 5842 5844 5845 5842 5842 5845 5848 5851 5855 5857
5753 5751 5750 5748 5747 5746 5745 5743 5742 5742 5741 5740 5740 5739 5739 5739 5738 5738 5737 5737 5737 5736 5736 5736 5736 5736 5736 5736 5737 5737 5738 5739 5740 5740 5740 5740 5739 5740 5741 5741 5743 5744 5745 5747 5749 5751 5753 5756 5758 5760 5762 5764 5769 5770 5772 5776 5778 5779 5778 5777 5784 5792 5794 5799 5803 5807 5814 5817 5819 5825 5829 5828 5830 5831 5831 5832 5835 5837 5839 5842 5845 5841 5839 5844 5847 5850 5853 5855
5752 5750 5749 5747 5746 5745 5743 5742 5741 5740 5739 5738 5737 5737 5736 5736 5735 5734 5734 5734 5733 5733 5732 5731 5731 5731 5731 5731 5731 5732 5732 5733 5734 5734 5734 5733 5732 5733 5734 5734 5735 5736 5737 5739 5741 5742 5745 5748 5750 5752 5754 5757 5761 5761 5765 5771 5773 5773 5772 5776 5783 5786 5788 5794 5800 5803 5808 5814 5815 5819 5825 5826 5826 5827 5827 5830 5831 5833 5836 5840 5843 5841 5839 5842 5846 5848 5850 5851
5751 5750 5748 5746 5744 5743 5742 5740 5739 5738 5737 5736 5735 5734 5733 5733 5732 5731 5731 5730 5729 5729 5728 5727 5727 5727 5726 5726 5726 5726 5727 5726 5727 5728 5727 5727 5727 5727 5727 5726 5727 5728 5730 5731 5732 5734 5736 5739 5741 5744 5747 5749 5752 5754 5760 5765 5765 5765 5768 5774 5777 5779 5782 5788 5796 5798 5802 5809 5810 5814 5821 5822 5823 5824 5823 5826 5829 5831 5835 5838 5841 5840 5838 5840 5841 5844 5846 5846
5751 5749 5747 5745 5743 5741 5740 5738 5737 5736 5735 5734 5732 5732 5730 5729 5728 5728 5727 5726 5725 5724 5724 5723 5723 5723 5722 5721 5720 5720 5721 5720 5720 5721 5721 5721 5721 5721 5721 5720 5719 5720 5722 5723 5724 5726 5728 5730 5733 5736 5738 5740 5744 5748 5754 5756 5756 5758 5763 5769 5772 5775 5777 5782 5789 5793 5796 5801 5805 5810 5816 5818 5819 5821 5822 5824 5828 5831 5833 5837 5839 5838 5837 5836 5837 5840 5842 5843
5750 5748 5746 5744 5741 5739 5738 5736 5735 5733 5732 5731 5730 5729 5727 5726 5725 5724 5723 5722 5721 5720 5719 5719 5718 5718 5717 5716 5715 5714 5714 5714 5715 5714 5714 5713 5713 5714 5714 5712 5712 5713 5715 5715 5716 5717 5719 5721 5724 5727 5728 5732 5736 5740 5745 5746 5747 5751 5758 5765 5768 5770 5772 5776 5782 5786 5791 5795 5799 5804 5810 5814 5816 5818 5819 5822 5826 5829 5831 5833 5834 5834 5834 5833 5834 5836 5838 5839
5749 5746 5744 5742 5740 5738 5736 5734 5732 5731 5729 5728 5727 5725 5724 5722 5721 5720 5719 5718 5717 5716 5715 5714 5713 5713 5712 5711 5709 5708 5707 5708 5708 5707 5707 5705 5705 5706 5705 5704 5704 5706 5708 5708 5709 5709 5711 5713 5716 5717 5719 5723 5726 5730 5735 5735 5739 5747 5754 5760 5762 5764 5766 5769 5774 5780 5785 5790 5793 5797 5802 5808 5813 5815 5815 5818 5822 5826 5829 5830 5829 5830 5831 5831 5831 5832 5835 5837
5748 5745 5742 5740 5738 5736 5733 5732 5730 5728 5726 5725 5724 5722 5720 5719 5717 5716 5715 5714 5713 5712 5711 5710 5709 5708 5708 5706 5704 5703 5701 5700 5700 5700 5700 5699 5698 5697 5697 5696 5696 5698 5699 5700 5701 5702 5703 5705 5707 5707 5709 5713 5716 5720 5725 5725 5733 5742 5747 5751 5754 5757 5760 5762 5766 5772 5778 5783 5787 5791 5795 5801 5808 5810 5809 5813 5818 5822 5827 5826 5824 5825 5827 5830 5830 5830 5832 5834
5747 5744 5741 5738 5735 5733 5731 5729 5727 5725 5723 5722 5720 5719 5717 5715 5714 5713 5711 5710 5709 5708 5707 5706 5705 5704 5703 5701 5699 5698 5696 5694 5693 5693 5693 5693 5692 5691 5690 5689 5690 5691 5691 5692 5694 5694 5695 5697 5698 5698 5699 5705 5709 5712 5715 5718 5727 5734 5737 5740 5744 5748 5752 5755 5758 5764 5770 5775 5781 5787 5790 5794 5800 5802 5805 5812 5816 5818 5823 5823 5820 5821 5823 5827 5828 5828 5828 5830
5746 5743 5740 5736 5733 5730 5728 5726 5724 5722 5720 5718 5717 5715 5713 5712 5710 5709 5708 5707 5705 5704 5703 5702 5702 5701 5699 5696 5694 5693 5692 5689 5688 5686 5686 5686 5686 5685 5684 5684 5683 5683 5683 5684 5686 5686 5687 5688 5689 5689 5692 5697 5700 5703 5706 5712 5719 5725 5728 5731 5735 5739 5741 5745 5751 5756 5763 5768 5775 5783 5784 5784 5789 5794 5801 5809 5813 5815 5818 5819 5818 5817 5819 5821 5824 5825 5825 5827
5745 5742 5738 5735 5731 5728 5726 5723 5721 5719 5717 5715 5713 5711 5709 5708 5706 5705 5704 5703 5701 5700 5699 5698 5697 5696 5695 5692 5689 5689 5687 5685 5683 5682 5681 5680 5679 5679 5678 5678 5677 5676 5675 5676 5677 5678 5678 5679 5680 5681 5685 5688 5690 5695 5700 5706 5710 5715 5720 5722 5727 5730 5730 5737 5744 5749 5756 5762 5770 5775 5773 5774 5781 5788 5797 5803 5807 5811 5814 5815 5814 5814 5815 5815 5817 5820 5821 5825
5744 5741 5737 5734 5731 5727 5724 5722 5719 5717 5714 5712 5710 5708 5706 5704 5702 5702 5701 5698 5696 5695 5694 5693 5692 5692 5691 5688 5685 5685 5683 5681 5680 5678 5676 5674 5673 5673 5672 5671 5670 5669 5668 5668 5668 5669 5670 5671 5671 5673 5678 5680 5684 5689 5692 5697 5700 5706 5710 5713 5717 5720 5723 5732 5739 5743 5749 5757 5764 5765 5762 5767 5776 5783 5791 5798 5801 5806 5810 5813 5812 5809 5812 5812 5812 5815 5817 5821
5744 5740 5737 5733 5730 5726 5723 5720 5717 5714 5712 5709 5707 5705 5702 5700 5698 5697 5696 5694 5692 5691 5689 5688 5688 5687 5686 5685 5682 5680 5679 5678 5677 5675 5672 5669 5668 5668 5667 5666 5664 5663 5661 5660 5659 5659 5660 5661 5661 5665 5670 5674 5678 5682 5684 5688 5693 5698 5700 5703 5709 5712 5719 5728 5733 5738 5744 5752 5758 5757 5756 5761 5771 5779 5786 5792 5796 5800 5805 5810 5809 5806 5808 5809 5808 5811 5814 5816
5743 5739 5736 5732 5729 5726 5723 5719 5716 5713 5710 5707 5704 5702 5699 5697 5694 5693 5692 5690 5688 5686 5685 5684 5684 5683 5681 5680 5678 5676 5675 5674 5673 5671 5668 5665 5663 5663 5662 5661 5659 5656 5655 5653 5650 5649 5649 5650 5652 5656 5662 5667 5670 5673 5677 5680 5684 5690 5692 5697 5704 5708 5714 5722 5727 5733 5740 5747 5750 5749 5751 5755 5764 5774 5781 5787 5791 5795 5799 5804 5805 5803 5805 5806 5805 5807 5809 5811
5742 5738 5735 5731 5728 5725 5722 5718 5715 5711 5708 5705 5702 5699 5697 5694 5691 5689 5688 5686 5684 5682 5681 5680 5680 5679 5677 5675 5673 5671 5670 5669 5668 5667 5664 5661 5659 5658 5656 5655 5653 5650 5649 5646 5643 5640 5640 5642 5644 5648 5653 5658 5662 5666 5667 5669 5675 5682 5687 5692 5700 5705 5710 5715 5721 5729 5734 5738 5741 5744 5746 5751 5759 5768 5774 5780 5786 5791 5793 5798 5801 5800 5801 5803 5802 5803 5805 5807
5740 5737 5734 5730 5726 5723 5720 5717 5713 5709 5706 5703 5699 5696 5694 5691 5687 5686 5685 5682 5680 5678 5676 5675 5675 5674 5673 5670 5669 5667 5665 5663 5662 5661 5660 5657 5654 5653 5651 5649 5648 5645 5643 5640 5637 5634 5633 5635 5637 5640 5644 5649 5654 5656 5656 5661 5671 5679 5682 5687 5694 5699 5704 5709 5715 5723 5729 5731 5734 5738 5741 5746 5755 5761 5766 5772 5779 5785 5788 5793 5797 5796 5797 5799 5799 5799 5801 5804
5739 5735 5732 5729 5725 5721 5718 5715 5711 5707 5704 5700 5696 5693 5690 5687 5684 5682 5681 5679 5677 5674 5672 5671 5670 5670 5669 5665 5663 5663 5662 5659 5656 5654 5654 5652 5649 5647 5646 5643 5642 5639 5637 5635 5633 5629 5628 5629 5630 5631 5636 5641 5647 5650 5652 5661 5670 5675 5678 5682 5687 5692 5696 5702 5709 5717 5723 5726 5728 5731 5735 5741 5749 5754 5761 5766 5771 5778 5784 5789 5792 5793 5794 5794 5796 5796 5797 5801
5737 5734 5731 5727 5723 5720 5716 5713 5709 5705 5701 5697 5693 5689 5686 5684 5681 5679 5678 5676 5672 5670 5670 5668 5666 5667 5666 5662 5659 5657 5655 5654 5651 5648 5646 5645 5644 5642 5640 5638 5636 5634 5632 5630 5628 5625 5623 5622 5623 5626 5632 5638 5643 5647 5651 5659 5664 5668 5672 5675 5680 5685 5689 5695 5702 5709 5716 5721 5723 5726 5732 5737 5743 5749 5756 5761 5764 5771 5777 5782 5786 5789 5790 5790 5792 5792 5793 5798
5736 5732 5729 5726 5722 5718 5714 5710 5706 5702 5698 5694 5690 5686 5683 5680 5677 5675 5675 5674 5668 5664 5666 5665 5662 5661 5660 5658 5656 5653 5650 5648 5646 5643 5639 5638 5638 5636 5634 5632 5630 5628 5627 5625 5622 5620 5617 5616 5618 5623 5629 5633 5638 5642 5647 5652 5657 5660 5664 5668 5673 5676 5682 5689 5696 5704 5711 5715 5719 5723 5727 5731 5736 5743 5750 5755 5759 5765 5770 5775 5779 5784 5786 5787 5787 5788 5790 5794
5735 5731 5727 5724 5720 5716 5712 5708 5704 5699 5695 5691 5687 5683 5679 5675 5672 5670 5669 5671 5667 5661 5661 5660 5658 5656 5654 5652 5650 5648 5646 5644 5641 5638 5634 5632 5630 5629 5628 5626 5624 5622 5621 5619 5617 5615 5611 5610 5615 5621 5625 5628 5632 5636 5640 5645 5650 5653 5657 5662 5665 5670 5677 5683 5689 5698 5704 5708 5713 5720 5722 5724 5729 5736 5744 5749 5754 5760 5765 5768 5773 5777 5780 5782 5783 5784 5787 5790
5733 5729 5725 5722 5718 5713 5709 5705 5701 5697 5692 5687 5683 5679 5676 5672 5669 5666 5664 5665 5663 5659 5657 5656 5654 5652 5649 5647 5645 5643 5641 5638 5636 5633 5629 5627 5624 5621 5620 5620 5618 5616 5614 5612 5611 5610 5607 5608 5613 5618 5621 5624 5627 5631 5635 5639 5643 5646 5651 5655 5659 5667 5673 5677 5683 5692 5697 5702 5709 5715 5717 5718 5723 5730 5738 5742 5748 5755 5759 5763 5767 5770 5774 5778 5780 5781 5784 5787
5732 5728 5723 5719 5716 5712 5707 5702 5698 5694 5689 5685 5680 5676 5673 5669 5666 5664 5661 5660 5658 5656 5654 5651 5650 5648 5644 5643 5641 5638 5636 5634 5631 5628 5624 5621 5619 5616 5614 5613 5611 5609 5608 5608 5606 5605 5605 5607 5610 5614 5617 5619 5623 5626 5630 5633 5636 5640 5645 5649 5655 5663 5668 5673 5680 5687 5693 5698 5704 5711 5712 5712 5716 5724 5730 5736 5742 5748 5753 5757 5761 5764 5769 5773 5776 5778 5780 5784
5730 5726 5721 5717 5713 5710 5705 5701 5696 5691 5687 5683 5678 5673 5669 5666 5663 5660 5658 5657 5654 5652 5651 5648 5646 5644 5640 5638 5637 5633 5631 5628 5626 5623 5619 5615 5612 5609 5608 5606 5605 5604 5603 5603 5602 5601 5602 5604 5607 5609 5611 5615 5617 5621 5625 5628 5631 5635 5639 5645 5652 5659 5664 5670 5677 5682 5687 5691 5697 5705 5705 5704 5710 5718 5723 5730 5736 5740 5745 5751 5755 5759 5763 5766 5770 5772 5774 5778
5728 5724 5720 5715 5711 5707 5703 5699 5694 5689 5684 5680 5675 5671 5666 5662 5659 5657 5655 5653 5650 5648 5647 5644 5642 5639 5635 5633 5631 5628 5625 5622 5620 5617 5613 5610 5606 5603 5601 5599 5599 5599 5598 5597 5596 5596 5598 5601 5603 5605 5607 5610 5613 5616 5621 5624 5627 5630 5635 5642 5648 5654 5660 5665 5672 5678 5680 5684 5692 5699 5699 5699 5707 5713 5718 5724 5729 5734 5739 5743 5749 5754 5757 5761 5766 5767 5769 5772
5727 5723 5718 5713 5708 5704 5699 5695 5691 5686 5681 5676 5672 5667 5663 5659 5656 5654 5651 5649 5647 5644 5642 5639 5637 5634 5631 5628 5625 5622 5618 5615 5613 5610 5607 5604 5601 5598 5596 5594 5594 5593 5593 5592 5591 5593 5596 5598 5600 5602 5604 5607 5609 5613 5617 5622 5623 5625 5633 5640 5645 5650 5656 5660 5667 5672 5675 5680 5686 5691 5696 5698 5701 5708 5714 5718 5723 5728 5733 5737 5742 5748 5752 5757 5761 5762 5765 5768
5726 5721 5717 5712 5707 5702 5697 5692 5687 5682 5677 5672 5668 5663 5659 5656 5653 5650 5648 5646 5643 5641 5638 5636 5633 5630 5627 5624 5620 5616 5613 5609 5606 5604 5602 5599 5596 5594 5591 5590 5589 5589 5589 5587 5587 5591 5593 5594 5596 5599 5602 5603 5606 5610 5615 5619 5620 5623 5631 5637 5642 5647 5652 5657 5662 5667 5672 5675 5675 5681 5690 5693 5695 5703 5709 5713 5716 5720 5726 5732 5736 5741 5746 5753 5757 5758 5761 5765
5724 5720 5715 5711 5705 5700 5695 5690 5684 5679 5674 5669 5666 5662 5658 5654 5651 5648 5646 5643 5641 5638 5635 5633 5630 5627 5624 5621 5618 5613 5608 5604 5600 5597 5596 5594 5591 5589 5586 5585 5585 5585 5585 5583 5584 5588 5589 5591 5593 5595 5597 5600 5604 5607 5612 5616 5618 5623 5629 5633 5638 5643 5648 5653 5658 5664 5669 5667 5668 5675 5683 5687 5691 5697 5703 5707 5709 5713 5721 5728 5733 5737 5741 5747 5752 5755 5759 5761
5722 5718 5714 5709 5705 5699 5694 5690 5685 5680 5675 5670 5666 5661 5656 5652 5648 5646 5643 5641 5639 5636 5632 5629 5626 5623 5620 5617 5615 5609 5602 5599 5595 5591 5590 5588 5586 5584 5582 5582 5581 5581 5582 5581 5582 5584 5586 5588 5589 5590 5593 5596 5600 5603 5607 5612 5616 5621 5627 5631 5635 5639 5644 5648 5652 5662 5664 5660 5665 5673 5678 5684 5688 5691 5697 5702 5704 5710 5717 5723 5727 5732 5737 5742 5747 5751 5755 5758
5720 5716 5711 5707 5703 5698 5693 5688 5684 5679 5673 5668 5662 5658 5653 5650 5646 5644 5641 5638 5636 5633 5629 5626 5624 5620 5616 5611 5607 5604 5597 5593 5590 5586 5583 5582 5581 5580 5579 5579 5579 5579 5579 5579 5580 5581 5582 5584 5586 5588 5592 5595 5597 5598 5601 5605 5611 5617 5623 5627 5632 5636 5640 5643 5647 5654 5653 5653 5664 5671 5674 5678 5681 5685 5694 5699 5703 5708 5713 5716 5721 5728 5734 5738 5742 5747 5751 5754
5718 5714 5709 5704 5700 5695 5690 5685 5680 5675 5669 5664 5659 5655 5651 5648 5645 5642 5639 5635 5633 5630 5627 5625 5621 5617 5612 5606 5600 5596 5592 5587 5584 5581 5579 5577 5578 5578 5577 5577 5577 5576 5576 5577 5577 5578 5578 5581 5583 5586 5590 5593 5595 5597 5599 5602 5606 5611 5617 5622 5626 5631 5635 5637 5641 5645 5646 5651 5662 5668 5670 5672 5673 5680 5689 5696 5701 5705 5708 5713 5719 5726 5731 5734 5737 5741 5746 5750
5716 5712 5707 5702 5698 5693 5688 5683 5677 5672 5666 5661 5657 5653 5650 5646 5643 5640 5636 5633 5630 5627 5624 5622 5618 5613 5607 5602 5596 5590 5586 5582 5579 5577 5576 5575 5574 5575 5575 5575 5574 5572 5573 5574 5574 5575 5576 5577 5580 5583 5586 5589 5592 5596 5599 5602 5604 5608 5613 5618 5621 5625 5630 5633 5637 5641 5644 5651 5659 5665 5667 5666 5670 5677 5683 5691 5699 5703 5706 5710 5717 5723 5727 5730 5733 5736 5741 5747
5715 5710 5705 5700 5695 5690 5685 5681 5675 5670 5665 5659 5655 5652 5649 5645 5642 5638 5635 5632 5628 5625 5622 5618 5615 5611 5605 5599 5592 5585 5580 5578 5577 5575 5575 5574 5572 5572 5572 5572 5571 5570 5570 5571 5572 5572 5573 5575 5578 5580 5584 5587 5591 5594 5599 5603 5604 5606 5611 5616 5619 5622 5627 5631 5636 5640 5643 5649 5658 5662 5661 5661 5669 5678 5683 5689 5696 5701 5704 5708 5714 5720 5723 5727 5728 5731 5738 5746
5713 5709 5705 5699 5693 5689 5686 5681 5675 5669 5664 5659 5654 5650 5646 5642 5639 5637 5634 5630 5626 5624 5620 5616 5612 5608 5604 5597 5588 5582 5578 5577 5576 5575 5574 5573 5571 5570 5570 5569 5569 5569 5568 5568 5569 5570 5571 5573 5576 5579 5581 5585 5588 5593 5598 5602 5603 5605 5608 5611 5616 5621 5625 5630 5634 5639 5644 5648 5654 5656 5656 5660 5669 5676 5682 5688 5693 5698 5702 5706 5712 5715 5718 5722 5723 5726 5735 5743
5713 5708 5704 5699 5694 5690 5687 5682 5676 5669 5663 5658 5652 5647 5643 5639 5637 5635 5631 5627 5624 5621 5618 5614 5609 5604 5598 5593 5586 5580 5578 5577 5575 5574 5572 5572 5570 5569 5568 5568 5567 5567 5567 5567 5568 5569 5570 5572 5574 5576 5578 5581 5585 5590 5594 5597 5601 5605 5606 5608 5615 5622 5625 5628 5632 5637 5641 5645 5651 5655 5658 5664 5670 5673 5678 5684 5690 5696 5699 5703 5707 5710 5713 5717 5719 5722 5731 5739
5712 5707 5703 5699 5695 5691 5686 5680 5674 5668 5662 5656 5651 5646 5643 5639 5636 5633 5629 5626 5623 5619 5615 5610 5606 5600 5594 5589 5584 5579 5577 5576 5575 5573 5572 5571 5570 5568 5567 5567 5566 5566 5566 5566 5567 5567 5568 5570 5573 5575 5577 5580 5583 5586 5589 5592 5597 5603 5606 5610 5618 5623 5623 5625 5630 5635 5638 5642 5649 5655 5658 5663 5667 5670 5675 5681 5686 5691 5697 5701 5703 5706 5709 5712 5715 5719 5727 5735
5711 5706 5701 5697 5693 5689 5683 5678 5673 5666 5659 5654 5650 5646 5642 5638 5635 5631 5628 5625 5622 5618 5613 5608 5604 5600 5593 5588 5583 5579 5577 5576 5575 5573 5572 5571 5570 5568 5566 5566 5565 5564 5565 5565 5565 5566 5567 5569 5571 5572 5574 5577 5580 5582 5585 5589 5593 5599 5606 5612 5615 5618 5621 5623 5627 5632 5637 5642 5648 5652 5655 5659 5662 5668 5675 5680 5683 5688 5694 5698 5700 5703 5706 5709 5713 5717 5724 5731
5710 5704 5699 5694 5690 5686 5681 5676 5671 5665 5659 5654 5649 5645 5641 5638 5634 5630 5627 5625 5621 5617 5614 5609 5604 5600 5594 5588 5584 5581 5578 5576 5575 5574 5572 5571 5570 5568 5567 5566 5566 5565 5565 5564 5564 5565 5566 5567 5569 5569 5571 5573 5576 5578 5582 5587 5592 5598 5605 5609 5610 5613 5618 5621 5625 5630 5635 5641 5647 5651 5654 5657 5659 5666 5675 5680 5683 5688 5693 5696 5698 5701 5704 5708 5712 5715 5720 5727
5708 5704 5699 5695 5690 5685 5681 5676 5670 5664 5659 5654 5649 5644 5641 5638 5634 5630 5628 5625 5621 5618 5614 5610 5605 5600 5595 5589 5585 5582 5580 5577 5576 5574 5573 5572 5571 5570 5569 5569 5568 5567 5566 5566 5565 5566 5566 5567 5568 5568 5569 5571 5574 5577 5582 5587 5593 5598 5602 5606 5610 5614 5618 5620 5623 5629 5634 5640 5645 5648 5652 5655 5659 5666 5675 5680 5685 5689 5693 5695 5697 5700 5703 5706 5709 5712 5717 5723
5707 5702 5698 5693 5688 5684 5680 5676 5670 5666 5661 5654 5649 5644 5640 5637 5634 5632 5629 5625 5622 5619 5615 5611 5607 5601 5596 5591 5587 5584 5581 5579 5578 5576 5575 5574 5573 5572 5572 5572 5571 5569 5568 5568 5567 5567 5567 5567 5568 5568 5569 5571 5573 5578 5585 5590 5595 5599 5602 5606 5612 5617 5620 5620 5622 5628 5634 5639 5643 5646 5650 5655 5661 5668 5673 5678 5683 5688 5692 5694 5696 5698 5700 5704 5706 5709 5714 5719
5705 5701 5696 5691 5687 5683 5678 5673 5669 5665 5660 5653 5647 5642 5639 5636 5634 5631 5628 5626 5623 5620 5616 5612 5608 5603 5598 5593 5589 5585 5583 5581 5580 5579 5578 5576 5575 5574 5575 5574 5573 5572 5571 5570 5569 5569 5569 5569 5569 5569 5570 5571 5573 5577 5584 5591 5595 5600 5603 5607 5611 5615 5618 5621 5623 5629 5635 5640 5643 5646 5650 5655 5663 5669 5673 5676 5681 5687 5691 5693 5695 5697 5699 5701 5704 5707 5711 5715
5703 5700 5695 5690 5686 5682 5677 5672 5668 5663 5657 5652 5646 5642 5638 5636 5634 5630 5627 5626 5624 5620 5616 5613 5609 5605 5600 5595 5591 5588 5586 5585 5583 5583 5582 5579 5577 5577 5577 5576 5575 5574 5573 5572 5571 5571 5571 5571 5571 5571 5572 5574 5575 5578 5584 5590 5595 5598 5602 5606 5609 5613 5618 5622 5625 5629 5634 5639 5643 5645 5649 5656 5664 5669 5673 5676 5680 5684 5689 5691 5692 5694 5697 5699 5701 5705 5709 5712
5701 5698 5694 5690 5685 5680 5676 5672 5668 5664 5659 5653 5647 5642 5639 5636 5632 5629 5627 5625 5623 5620 5617 5613 5610 5607 5602 5599 5595 5592 5591 5589 5588 5586 5585 5582 5581 5581 5580 5579 5578 5577 5576 5574 5573 5574 5574 5573 5574 5574 5575 5577 5579 5582 5585 5590 5594 5598 5601 5605 5609 5613 5617 5621 5626 5629 5631 5635 5640 5642 5646 5653 5661 5666 5671 5675 5678 5681 5685 5688 5689 5691 5693 5695 5698 5702 5706 5710
5700 5697 5693 5689 5684 5679 5675 5671 5667 5664 5660 5654 5648 5643 5640 5636 5632 5629 5628 5626 5624 5622 5618 5615 5612 5609 5605 5602 5599 5597 5594 5593 5591 5589 5588 5586 5584 5583 5582 5581 5580 5579 5578 5577 5576 5577 5577 5577 5578 5578 5579 5581 5584 5587 5591 5594 5597 5600 5602 5606 5610 5614 5615 5618 5623 5626 5628 5632 5636 5638 5641 5648 5656 5661 5665 5670 5674 5678 5682 5684 5685 5687 5689 5691 5695 5699 5703 5706
5698 5696 5692 5688 5683 5678 5674 5670 5665 5662 5658 5654 5649 5644 5639 5635 5632 5630 5628 5626 5625 5623 5620 5617 5614 5611 5608 5604 5602 5600 5598 5596 5595 5593 5591 5589 5587 5585 5584 5583 5582 5581 5580 5579 5578 5579 5579 5580 5581 5582 5583 5585 5588 5591 5595 5598 5600 5602 5605 5608 5612 5615 5616 5617 5619 5621 5625 5630 5633 5636 5640 5646 5651 5655 5659 5663 5669 5674 5678 5679 5681 5683 5684 5687 5692 5697 5700 5702
5696 5694 5691 5687 5683 5678 5673 5668 5664 5660 5656 5653 5649 5644 5639 5635 5633 5631 5629 5627 5625 5623 5621 5618 5616 5613 5610 5607 5604 5602 5601 5599 5597 5595 5594 5592 5590 5588 5587 5585 5584 5583 5582 5581 5582 5582 5582 5583 5585 5586 5587 5589 5590 5592 5595 5598 5599 5602 5605 5609 5613 5615 5617 5619 5621 5622 5623 5626 5630 5636 5640 5643 5647 5651 5655 5657 5661 5668 5673 5675 5676 5679 5681 5684 5689 5694 5697 5700
5695 5691 5689 5686 5683 5678 5674 5670 5665 5660 5657 5653 5648 5642 5638 5635 5633 5632 5630 5628 5625 5623 5622 5620 5617 5615 5612 5610 5607 5605 5603 5601 5599 5597 5596 5594 5593 5591 5590 5588 5587 5586 5586 5585 5585 5585 5585 5586 5587 5589 5590 5592 5593 5594 5596 5598 5599 5601 5604 5608 5612 5615 5618 5621 5625 5626 5626 5625 5628 5633 5637 5639 5642 5646 5651 5654 5657 5661 5668 5671 5673 5676 5680 5683 5686 5691 5695 5698
5693 5689 5686 5684 5681 5676 5672 5669 5665 5661 5658 5654 5647 5641 5638 5636 5633 5631 5630 5629 5626 5624 5622 5620 5618 5616 5615 5612 5610 5607 5605 5604 5602 5600 5598 5597 5595 5594 5593 5592 5591 5590 5589 5588 5589 5588 5588 5590 5591 5592 5593 5594 5595 5596 5597 5598 5599 5600 5604 5608 5612 5616 5618 5620 5623 5626 5626 5625 5626 5629 5634 5637 5639 5643 5648 5651 5653 5657 5662 5667 5670 5673 5677 5679 5682 5687 5691 5694
5693 5689 5685 5682 5679 5676 5672 5668 5665 5661 5658 5653 5648 5643 5639 5637 5634 5631 5629 5628 5627 5625 5623 5621 5618 5617 5616 5614 5612 5610 5608 5607 5605 5602 5600 5599 5598 5596 5596 5595 5594 5593 5592 5591 5592 5592 5592 5594 5595 5595 5595 5595 5596 5597 5599 5600 5602 5603 5606 5609 5612 5615 5618 5619 5621 5623 5624 5625 5626 5629 5632 5635 5638 5642 5646 5649 5651 5654 5658 5663 5667 5670 5673 5676 5678 5682 5686 5690
5691 5688 5685 5681 5679 5676 5672 5668 5664 5661 5658 5653 5649 5645 5641 5638 5635 5632 5629 5627 5626 5625 5623 5621 5619 5618 5617 5616 5614 5612 5610 5608 5606 5603 5602 5601 5600 5599 5598 5597 5596 5595 5595 5594 5594 5595 5595 5596 5597 5597 5597 5597 5598 5599 5601 5602 5604 5606 5608 5610 5612 5615 5618 5620 5622 5624 5625 5627 5628 5629 5630 5634 5638 5641 5643 5646 5649 5652 5655 5659 5663 5666 5669 5673 5676 5679 5683 5687
5689 5686 5683 5680 5677 5675 5672 5668 5664 5660 5657 5654 5649 5645 5641 5638 5635 5632 5629 5627 5626 5624 5623 5621 5620 5619 5618 5616 5615 5613 5612 5610 5607 5605 5603 5601 5601 5601 5601 5600 5599 5598 5597 5597 5597 5597 5598 5597 5597 5598 5598 5598 5599 5602 5603 5603 5606 5608 5610 5612 5614 5617 5619 5621 5623 5624 5626 5628 5628 5627 5628 5632 5636 5639 5642 5644 5647 5650 5653 5657 5660 5663 5667 5670 5673 5677 5680 5684